sat.trackr.live / text

‹ back to catalog

STARLINK-31932

NORAD 59929 · 2024-106H

PAYLOAD ACTIVE UNKNOWN

§ Identity

Operator
Country
US
Launch date
2024-06-01
Launch site
AFETR
Launch vehicle
Mass (kg)
RCS (m²)

Purposes: comms

External: N2YO · Heavens-Above · Gunter

§ Orbital elements

Epoch: 2026-05-25T00:41:01.358016Z

Period
94.27 min
Inclination
42.9946°
Eccentricity
0.0001498
Mean motion
15.27573012 rev/d
Perigee alt
482.0 km
Apogee alt
484.1 km
Semi-major
6,861.2 km
B*
-5.1351e-4
RAAN
258.1954°
Arg perigee
262.5730°
Mean anomaly
97.4952°
Rev number
11,223

§ Raw data

STARLINK-319321 59929U 24106H   26145.02848794 -.00014363  00000+0 -51351-3 0  99932 59929  42.9946 258.1954 0001498 262.5730  97.4952 15.27573012112239

JSON: /api/v1/satellites/59929 · /tle

For live sub-satellite position, see the globe view (requires WebGL).

§ Visibility from observer

Set your observer location to see the next 7 days of passes ≥ 10°. The values pass through the URL so the page stays shareable.

No JS? Fill the form by hand. The geolocation button needs JavaScript.